Location: Invercargill
(46.4000°S, 168.3500°E)
Time: 19:37:32
(UTC+12:00)

Cosmos 1408 - Pass Details

Date: 14 May 2021
Orbit: 468 x 490 km, 82.6° (Epoch: 14 June)

Event Time Altitude Azimuth Distance (km) Brightness Sun altitude
Rises 18:08:55 0° 357° (N) 2,569 6.5 -7.8°
Reaches altitude 10° 18:11:01 10° 359° (N) 1,697 5.6 -8.1°
Maximum altitude 18:14:44 74° 83° (E) 528 2.6 -8.7°
Drops below altitude 10° 18:18:30 10° 168° (SSE) 1,725 5.1 -9.4°
Sets 18:20:38 0° 169° (S) 2,616 6.0 -9.7°
